Hourly Data Report for August 01, 2020

OTTAWA INTL A
ONTARIO
Current Station Operator: NAVCAN

45°19'00.000" N
75°40'00.000" W
114.90 m
6106001
71628
YOW

Download Data

Hourly Data (August 2020)
Hourly Data Report for August 1, 2020
TIME
LST
Temp Definition
°C
Dew Point Definition
°C
Rel Hum Definition
%
Precip. Amount Definition
mm

Wind Dir Definition
10's deg

Wind Spd Definition
km/h
Visibility Definition
km
Stn Press Definition
kPa
Hmdx Definition


Wind Chill Definition


Weather Definition


00:00 20.7 16.0 74   34 9 24.1 99.94 25   LegendNANA
01:00 20.4 15.7 74   33 4 24.1 99.94 25   Clear
02:00 17.6 15.0 85   22 8 24.1 99.96     LegendNANA
03:00 16.3 15.2 93   27 3 24.1 99.96     LegendNANA
04:00 16.2 15.4 95   24 9 24.1 99.99     Clear
05:00 16.8 15.9 94   25 4 24.1 100.02     LegendNANA
06:00 18.0 16.8 93   26 5 24.1 100.06     LegendNANA
07:00 20.9 17.9 83   27 6 24.1 100.08 27   Clear
08:00 23.9 16.0 61   36 2 24.1 100.12 29   LegendNANA
09:00 25.5 15.9 55   23 6 24.1 100.15 30   LegendNANA
10:00 26.4 17.2 56   21 9 24.1 100.14 32   Mainly Clear
11:00 28.0 15.2 45   26 10 24.1 100.14 32   LegendNANA
12:00 28.3 14.9 44   18 7 24.1 100.09 32   LegendNANA
13:00 29.4 14.5 40   22 10 24.1 100.05 33   Mainly Clear
14:00 29.8 14.7 39   5 8 24.1 100.01 34   LegendNANA
15:00 30.1 14.5 38   19 7 24.1 99.96 34   LegendNANA
16:00 28.8 16.0 45   16 12 24.1 99.94 33   Mostly Cloudy
17:00 29.4 15.6 43   12 13 24.1 99.90 34   LegendNANA
18:00 27.3 16.5 51   12 10 24.1 99.89 32   LegendNANA
19:00 24.7 17.7 64   11 9 24.1 99.90 30   Mostly Cloudy
20:00 22.1 16.9 72   10 8 24.1 99.94 27   LegendNANA
21:00 22.7 16.4 67   11 9 24.1 99.97 28   LegendNANA
22:00 21.4 16.2 72   10 11 24.1 99.97 26   Mostly Cloudy
23:00 21.1 16.4 74   11 11 24.1 99.96 26   LegendNANA

Notes on Data Quality.

Legend

  • E = Estimated
  • M = Missing
  • NA = Not Available*
  • [empty] = Indicates an unobserved value
Date modified: